TimeEST,TemperatureF,Dew PointF,Humidity,Sea Level PressureIn,VisibilityMPH,Wind Direction,Wind SpeedMPH,Gust SpeedMPH,PrecipitationIn,Events,Conditions,WindDirDegrees,DateUTC
12:15 AM,32.0,30.2,93,30.17,4.0,NNE,10.4,18.4,0.01,Snow,Light Snow,20,2014-03-07 05:15:00
12:35 AM,32.0,30.2,93,30.17,7.0,NNE,9.2,19.6,0.01,Snow,Light Snow,30,2014-03-07 05:35:00
12:55 AM,32.0,32.0,100,30.14,4.0,NNE,11.5,23.0,0.03,Snow,Light Snow,30,2014-03-07 05:55:00
1:15 AM,32.0,32.0,100,30.14,5.0,NNE,11.5,17.3,0.01,Snow,Light Snow,30,2014-03-07 06:15:00
1:35 AM,32.0,32.0,100,30.14,7.0,NNE,13.8,18.4,0.01,,Overcast,30,2014-03-07 06:35:00
1:55 AM,32.0,32.0,100,30.11,5.0,NNE,12.7,23.0,0.02,Snow,Light Snow,30,2014-03-07 06:55:00
2:15 AM,32.0,32.0,100,30.08,7.0,NNE,16.1,24.2,N/A,Snow,Light Snow,30,2014-03-07 07:15:00
2:35 AM,32.0,32.0,100,30.09,7.0,NE,13.8,20.7,N/A,Snow,Light Snow,40,2014-03-07 07:35:00
2:55 AM,32.0,32.0,100,30.09,7.0,NNE,11.5,20.7,N/A,,Overcast,20,2014-03-07 07:55:00
3:10 AM,32.0,32.0,100,30.09,4.0,North,10.4,16.1,0.01,Snow,Light Snow,10,2014-03-07 08:10:00
3:35 AM,32.0,32.0,100,30.08,5.0,NNE,10.4,18.4,0.03,Snow,Light Snow,20,2014-03-07 08:35:00
3:55 AM,32.0,32.0,100,30.06,1.8,NNE,15.0,23.0,0.06,Snow,Light Snow,30,2014-03-07 08:55:00
4:15 AM,32.0,32.0,100,30.08,5.0,NNE,8.1,21.9,0.01,Snow,Light Snow,30,2014-03-07 09:15:00
4:35 AM,32.0,32.0,100,30.06,5.0,NNE,15.0,23.0,0.01,Snow,Light Snow,30,2014-03-07 09:35:00
4:55 AM,32.0,32.0,100,30.05,5.0,NNE,15.0,23.0,0.03,Snow,Light Snow,20,2014-03-07 09:55:00
5:15 AM,32.0,32.0,100,30.04,7.0,NNE,15.0,21.9,N/A,,Overcast,30,2014-03-07 10:15:00
5:35 AM,32.0,32.0,100,30.02,7.0,NNE,13.8,21.9,N/A,,Overcast,30,2014-03-07 10:35:00
5:55 AM,32.0,32.0,100,30.03,7.0,NNE,13.8,21.9,N/A,,Overcast,30,2014-03-07 10:55:00
6:15 AM,32.0,32.0,100,30.02,10.0,NNE,13.8,24.2,N/A,,Overcast,30,2014-03-07 11:15:00
6:35 AM,32.0,32.0,100,30.03,7.0,NNE,9.2,20.7,N/A,Snow,Light Snow,30,2014-03-07 11:35:00
6:55 AM,32.0,32.0,100,30.02,5.0,NNE,15.0,24.2,0.01,Snow,Light Snow,20,2014-03-07 11:55:00
7:15 AM,32.0,32.0,100,30.03,3.0,NNE,10.4,-,0.01,Snow,Light Snow,30,2014-03-07 12:15:00
7:35 AM,-9999,-9999,N/A,30.04,-9999.0,NNE,9.2,-,N/A,,Unknown,20,2014-03-07 12:35:00
7:50 AM,32.0,32.0,100,30.04,4.0,North,12.7,18.4,0.01,Snow,Light Snow,10,2014-03-07 12:50:00
8:15 AM,32.0,32.0,100,30.03,3.0,North,9.2,18.4,0.02,Snow,Light Snow,10,2014-03-07 13:15:00
8:35 AM,32.0,32.0,100,30.02,2.5,North,12.7,19.6,0.04,Snow,Light Snow,10,2014-03-07 13:35:00
8:55 AM,32.0,32.0,100,30.02,3.0,North,12.7,18.4,0.07,,Overcast,10,2014-03-07 13:55:00
9:15 AM,32.0,32.0,100,30.03,-9999.0,North,12.7,-,N/A,,Unknown,360,2014-03-07 14:15:00
9:35 AM,32.0,32.0,100,30.03,3.0,North,9.2,16.1,0.01,Snow,Light Snow,360,2014-03-07 14:35:00
9:50 AM,-9999,-9999,N/A,30.03,-9999.0,North,10.4,-,N/A,,Unknown,360,2014-03-07 14:50:00